When you browse on this site, cookies collect data to enhance your experience and personalize the content and advertising you see.
Visit our Privacy Policy to learn more. By continuing to use the site, you agree to this use of cookies and data.
  • In Hungary
  • List of Countries
  • For 7 days
  • Water Temperature
  • Weather Map
  • News
  • Weather Widgets
  • user-avatar
    Login

    Hourly Weather Khyl'kivka

    Today, 2 April, Thursday

    Time Temperature Precipitation Wind Pressure Humidity
    00:00 0°C° 0 mm 3 mps 751 mmHg 62%
    01:00 0°C° 0 mm 3 mps 751 mmHg 63%
    02:00 0°C° 0 mm 3 mps 751 mmHg 62%
    03:00 -1°C° 0 mm 3 mps 751 mmHg 64%
    04:00 -1°C° 0 mm 3 mps 751 mmHg 66%
    05:00 -1°C° 0 mm 3 mps 751 mmHg 68%
    06:00 -1°C° 0 mm 4 mps 751 mmHg 62%
    07:00 +1°C° 0 mm 4 mps 751 mmHg 57%
    08:00 +3°C° 0 mm 4 mps 751 mmHg 51%
    09:00 +3°C° 0 mm 5 mps 751 mmHg 47%
    10:00 +5°C° 0 mm 5 mps 750 mmHg 43%
    11:00 +6°C° 0 mm 5 mps 750 mmHg 39%
    12:00 +7°C° 0 mm 5 mps 750 mmHg 38%
    13:00 +8°C° 0 mm 5 mps 750 mmHg 36%
    14:00 +8°C° 0 mm 5 mps 750 mmHg 35%
    15:00 +8°C° 0 mm 5 mps 749 mmHg 36%
    16:00 +8°C° 0 mm 5 mps 749 mmHg 37%
    17:00 +8°C° 0 mm 5 mps 749 mmHg 39%
    18:00 +7°C° 0 mm 4 mps 749 mmHg 43%
    19:00 +7°C° 0 mm 3 mps 749 mmHg 47%
    20:00 +6°C° 0 mm 2 mps 749 mmHg 52%
    21:00 +4°C° 0 mm 3 mps 749 mmHg 53%
    22:00 +4°C° 0 mm 3 mps 749 mmHg 55%
    23:00 +3°C° 0 mm 3 mps 749 mmHg 57%

    Tomorrow, 3 April, Friday

    Time Temperature Precipitation Wind Pressure Humidity
    00:00 +3°C° 0 mm 3 mps 749 mmHg 57%
    01:00 +3°C° 0 mm 3 mps 749 mmHg 58%
    02:00 +2°C° 0 mm 3 mps 749 mmHg 59%
    03:00 +2°C° 0 mm 3 mps 749 mmHg 60%
    04:00 +1°C° 0 mm 3 mps 749 mmHg 60%
    05:00 +1°C° 0 mm 3 mps 749 mmHg 61%
    06:00 +3°C° 0 mm 3 mps 749 mmHg 56%
    07:00 +4°C° 0 mm 3 mps 749 mmHg 52%
    08:00 +5°C° 0 mm 3 mps 749 mmHg 47%
    09:00 +7°C° 0 mm 4 mps 749 mmHg 42%
    10:00 +8°C° 0 mm 5 mps 749 mmHg 37%
    11:00 +10°C° 0 mm 5 mps 749 mmHg 32%
    12:00 +10°C° 0 mm 6 mps 749 mmHg 32%
    13:00 +11°C° 0 mm 6 mps 749 mmHg 31%
    14:00 +11°C° 0 mm 6 mps 749 mmHg 30%
    15:00 +11°C° 0 mm 6 mps 748 mmHg 31%
    16:00 +11°C° 0 mm 6 mps 748 mmHg 33%
    17:00 +10°C° 0 mm 6 mps 748 mmHg 34%
    18:00 +9°C° 0 mm 5 mps 748 mmHg 38%
    19:00 +8°C° 0 mm 4 mps 749 mmHg 41%
    20:00 +6°C° 0 mm 4 mps 749 mmHg 45%
    21:00 +6°C° 0 mm 4 mps 750 mmHg 47%
    22:00 +6°C° 0 mm 4 mps 750 mmHg 49%
    23:00 +6°C° 0 mm 4 mps 750 mmHg 51%

    Day after tomorrow, 4 April, Saturday

    Time Temperature Precipitation Wind Pressure Humidity
    00:00 +5°C° 0 mm 4 mps 750 mmHg 55%
    01:00 +4°C° 0 mm 4 mps 751 mmHg 59%
    02:00 +4°C° 0 mm 3 mps 751 mmHg 64%
    03:00 +3°C° 0 mm 3 mps 751 mmHg 67%
    04:00 +4°C° 0 mm 2 mps 752 mmHg 71%
    05:00 +4°C° 0 mm 2 mps 752 mmHg 75%
    06:00 +4°C° 0 mm 3 mps 753 mmHg 70%
    07:00 +5°C° 0 mm 3 mps 753 mmHg 65%
    08:00 +7°C° 0 mm 4 mps 754 mmHg 60%
    09:00 +8°C° 0 mm 4 mps 754 mmHg 52%
    10:00 +10°C° 0 mm 4 mps 755 mmHg 44%
    11:00 +11°C° 0 mm 4 mps 755 mmHg 36%
    12:00 +11°C° 0 mm 4 mps 755 mmHg 34%
    13:00 +12°C° 0 mm 4 mps 755 mmHg 33%
    14:00 +12°C° 0 mm 4 mps 756 mmHg 31%
    15:00 +12°C° 0 mm 4 mps 756 mmHg 31%
    16:00 +11°C° 0 mm 4 mps 756 mmHg 30%
    17:00 +11°C° 0 mm 4 mps 756 mmHg 30%
    18:00 +8°C° 0 mm 4 mps 757 mmHg 33%
    19:00 +8°C° 0 mm 3 mps 757 mmHg 36%
    20:00 +7°C° 0 mm 2 mps 758 mmHg 39%
    21:00 +6°C° 0 mm 2 mps 758 mmHg 41%
    22:00 +6°C° 0 mm 2 mps 759 mmHg 44%
    23:00 +5°C° 0 mm 2 mps 759 mmHg 46%

    5 April, Sunday

    Time Temperature Precipitation Wind Pressure Humidity
    00:00 +5°C° 0 mm 2 mps 759 mmHg 49%
    01:00 +4°C° 0 mm 2 mps 759 mmHg 52%
    02:00 +4°C° 0 mm 2 mps 760 mmHg 55%
    03:00 +2°C° 0 mm 3 mps 760 mmHg 58%
    04:00 +2°C° 0 mm 3 mps 760 mmHg 61%
    05:00 +1°C° 0 mm 3 mps 761 mmHg 64%
    06:00 +1°C° 0 mm 4 mps 761 mmHg 61%
    07:00 +2°C° 0 mm 5 mps 762 mmHg 58%
    08:00 +3°C° 0 mm 5 mps 762 mmHg 55%
    09:00 +4°C° 0 mm 6 mps 762 mmHg 50%
    10:00 +5°C° 0 mm 7 mps 763 mmHg 45%
    11:00 +6°C° 0 mm 7 mps 763 mmHg 40%
    12:00 +6°C° 0 mm 7 mps 764 mmHg 38%
    13:00 +6°C° 0 mm 7 mps 764 mmHg 36%
    14:00 +6°C° 0 mm 7 mps 764 mmHg 34%
    15:00 +6°C° 0 mm 7 mps 764 mmHg 33%
    16:00 +7°C° 0 mm 6 mps 764 mmHg 32%
    17:00 +5°C° 0 mm 6 mps 764 mmHg 31%
    18:00 +5°C° 0 mm 5 mps 765 mmHg 35%
    19:00 +4°C° 0 mm 4 mps 766 mmHg 38%
    20:00 +3°C° 0 mm 4 mps 766 mmHg 41%
    21:00 +2°C° 0 mm 3 mps 767 mmHg 44%
    22:00 +2°C° 0 mm 3 mps 767 mmHg 46%
    23:00 +1°C° 0 mm 3 mps 767 mmHg 49%

    6 April, Monday

    Time Temperature Precipitation Wind Pressure Humidity
    00:00 +2°C° 0 mm 2 mps 768 mmHg 50%
    01:00 +1°C° 0 mm 2 mps 768 mmHg 51%
    02:00 +1°C° 0 mm 2 mps 768 mmHg 53%
    03:00 +1°C° 0 mm 2 mps 769 mmHg 54%
    04:00 -1°C° 0 mm 2 mps 769 mmHg 54%
    05:00 +1°C° 0 mm 1 mps 769 mmHg 55%
    06:00 +2°C° 0 mm 1 mps 769 mmHg 50%
    07:00 +4°C° 0 mm 1 mps 769 mmHg 45%
    08:00 +5°C° 0 mm 1 mps 770 mmHg 40%
    09:00 +7°C° 0 mm 1 mps 770 mmHg 36%
    10:00 +8°C° 0 mm 1 mps 770 mmHg 33%
    11:00 +8°C° 0 mm 2 mps 770 mmHg 29%
    12:00 +9°C° 0 mm 2 mps 770 mmHg 28%
    13:00 +10°C° 0 mm 2 mps 769 mmHg 28%
    14:00 +10°C° 0 mm 2 mps 769 mmHg 28%
    15:00 +10°C° 0 mm 2 mps 769 mmHg 29%
    16:00 +10°C° 0 mm 2 mps 769 mmHg 30%
    17:00 +12°C° 0 mm 2 mps 768 mmHg 30%
    18:00 +10°C° 0 mm 1 mps 769 mmHg 34%
    19:00 +9°C° 0 mm 1 mps 769 mmHg 37%
    20:00 +8°C° 0 mm 1 mps 769 mmHg 41%
    21:00 +7°C° 0 mm 1 mps 769 mmHg 42%
    22:00 +7°C° 0 mm 1 mps 769 mmHg 43%
    23:00 +6°C° 0 mm 1 mps 769 mmHg 44%

    7 April, Tuesday

    Time Temperature Precipitation Wind Pressure Humidity
    00:00 +6°C° 0 mm 1 mps 769 mmHg 44%
    01:00 +6°C° 0 mm 1 mps 769 mmHg 45%
    02:00 +5°C° 0 mm 1 mps 769 mmHg 46%
    03:00 +5°C° 0 mm 1 mps 769 mmHg 47%
    04:00 +5°C° 0 mm 1 mps 769 mmHg 49%
    05:00 +4°C° 0 mm 1 mps 769 mmHg 50%
    06:00 +5°C° 0 mm 2 mps 769 mmHg 47%
    07:00 +6°C° 0 mm 2 mps 769 mmHg 44%
    08:00 +8°C° 0 mm 2 mps 769 mmHg 41%
    09:00 +10°C° 0 mm 2 mps 769 mmHg 37%
    10:00 +12°C° 0 mm 2 mps 768 mmHg 34%
    11:00 +14°C° 0 mm 2 mps 768 mmHg 30%
    12:00 +14°C° 0 mm 2 mps 768 mmHg 28%
    13:00 +15°C° 0 mm 2 mps 768 mmHg 27%
    14:00 +16°C° 0 mm 3 mps 767 mmHg 25%
    15:00 +16°C° 0 mm 3 mps 767 mmHg 26%
    16:00 +16°C° 0 mm 3 mps 766 mmHg 28%
    17:00 +16°C° 0 mm 3 mps 766 mmHg 29%
    18:00 +14°C° 0 mm 2 mps 766 mmHg 33%
    19:00 +12°C° 0 mm 2 mps 766 mmHg 36%
    20:00 +10°C° 0 mm 2 mps 765 mmHg 40%
    21:00 +10°C° 0 mm 1 mps 765 mmHg 41%
    22:00 +10°C° 0 mm 1 mps 765 mmHg 43%
    23:00 +9°C° 0 mm 1 mps 765 mmHg 44%
    Show more